QPF
0.00 0.00 0.00 0.00 0.00 0.00 0.00 0.00 0.00 0.00 0.00 0.00 0.00 0.00 0.00 0.00 0.00 0.00 0.00 0.00 0.00 0.00 0.00 0.00 0.00 0.00 0.00 0.00 0.00 0.00 0.00 0.00 0.00 0.00 0.00 0.00 0.00 0.00 0.00 0.00 0.00 0.00 0.00 0.00 0.00
0.00 0.00 0.00 0.00 0.00 0.00 0.00 0.00 0.00 0.00 0.00 0.00 0.00 0.00 0.00 0.00 0.00 0.00 0.00 0.00 0.00 0.00 0.00 0.00 0.00 0.00 0.00 0.00 0.00 0.00 0.00 0.00 0.00 0.00 0.00 0.00 0.00 0.00 0.00 0.00 0.00 0.00 0.00 0.00 0.00
0.00 0.00 0.00 0.00 0.00 0.00 0.00 0.00 0.00 0.00 0.00 0.00 0.00 0.00 0.00 0.00 0.00 0.00 0.00 0.00 0.00 0.00 0.00 0.00 0.00 0.00 0.00 0.00 0.00 0.00 0.00 0.00 0.00 0.00 0.00 0.00 0.00 0.00 0.00 0.00 0.00 0.00 0.00 0.00 0.00
0.00 0.00 0.00 0.00 0.00 0.00 0.00 0.00 0.00 0.00 0.00 0.00 0.00 0.00 0.00 0.00 0.00 0.00 0.00 0.00 0.00 0.00 0.00 0.00 0.00 0.00 0.00 0.00 0.00 0.00 0.00 0.00 0.00 0.00 0.00 0.00 0.00 0.00 0.00 0.00 0.00 0.00 0.00 0.00 0.00
0.00 0.00 0.00 0.00 0.00 0.00 0.00 0.00 0.00 0.00 0.00 0.00 0.00 0.00 0.00 0.00 0.00 0.00 0.00 0.00 0.00 0.00 0.00 0.00 0.00 0.00 0.00 0.00 0.00 0.00 0.00 0.00 0.00 0.00 0.00 0.00 0.00 0.00 0.00 0.00 0.00 0.00 0.00 0.00 0.00
0.00 0.00 0.00 0.00 0.00 0.00 0.00 0.00 0.00 0.00 0.00 0.00 0.00 0.00 0.00 0.00 0.00 0.00 0.00 0.00 0.00 0.00 0.00 0.00 0.00 0.00 0.00 0.00 0.00 0.00 0.00 0.00 0.00 0.00 0.00 0.00 0.00 0.00 0.00 0.00 0.00 0.00 0.00 0.00 0.00
0.00 0.00 0.00 0.00 0.00 0.00 0.00 0.00 0.00 0.00 0.00 0.00 0.00 0.00 0.00 0.00 0.00 0.00 0.00 0.00 0.00 0.00 0.00 0.00 0.00 0.00 0.00 0.00 0.00 0.00 0.00 0.00 0.00 0.00 0.00 0.00 0.00 0.00 0.00 0.00 0.00 0.00 0.00 0.00 0.00
0.00 0.00 0.00 0.00 0.00 0.00 0.00 0.00 0.00 0.00 0.00 0.00 0.00 0.00 0.00 0.00 0.00 0.00 0.00 0.00 0.00 0.00 0.00 0.00 0.00 0.00 0.00 0.00 0.00 0.00 0.00 0.00 0.00 0.00 0.00 0.00 0.00 0.00 0.00 0.00 0.00 0.00 0.00 0.00 0.00
0.00 0.00 0.00 0.00 0.00 0.00 0.00 0.00 0.00 0.00 0.00 0.00 0.00 0.00 0.00 0.00 0.00 0.00 0.00 0.00 0.00 0.00 0.00 0.00 0.00 0.00 0.00 0.00 0.00 0.00 0.00 0.00 0.00 0.00 0.00 0.00 0.00 0.00 0.00 0.00 0.00 0.00 0.00 0.00 0.00
0.00 0.00 0.00 0.00 0.00 0.00 0.00 0.00 0.00 0.00 0.00 0.00 0.00 0.00 0.00 0.00 0.00 0.00 0.00 0.00 0.00 0.00 0.00 0.00 0.00 0.00 0.00 0.00 0.00 0.00 0.00 0.00 0.00 0.00 0.00 0.00 0.00 0.00 0.00 0.00 0.00 0.00 0.00 0.00 0.00
0.00 0.00 0.00 0.00 0.00 0.00 0.00 0.00 0.00 0.00 0.00 0.00 0.00 0.00 0.00 0.00 0.00 0.00 0.00 0.00 0.00 0.00 0.00 0.00 0.00 0.00 0.00 0.00 0.00 0.00 0.00 0.00 0.00 0.00 0.00 0.00 0.00 0.00 0.00 0.00 0.00 0.00 0.00 0.00 0.00
0.00 0.00 0.00 0.00 0.00 0.00 0.00 0.00 0.00 0.00 0.00 0.00 0.00 0.00 0.00 0.00 0.00 0.00 0.00 0.00 0.00 0.00 0.00 0.00 0.00 0.00 0.00 0.00 0.00 0.00 0.00 0.00 0.00 0.00 0.00 0.00 0.00 0.00 0.00 0.00 0.00 0.00 0.00 0.00 0.00
0.00 0.00 0.00 0.00 0.00 0.00 0.00 0.00 0.00 0.00 0.00 0.00 0.00 0.00 0.00 0.00 0.00 0.00 0.00 0.00 0.00 0.00 0.00 0.00 0.00 0.00 0.00 0.00 0.00 0.00 0.00 0.00 0.00 0.00 0.00 0.00 0.00 0.00 0.00 0.00 0.00 0.00 0.00 0.00 0.00
0.00 0.00 0.00 0.00 0.00 0.00 0.00 0.00 0.00 0.00 0.00 0.00 0.00 0.00 0.00 0.00 0.00 0.00 0.00 0.00 0.00 0.00 0.00 0.00 0.00 0.00 0.00 0.00 0.00 0.00 0.00 0.00 0.00 0.00 0.00 0.00 0.00 0.00 0.00 0.00 0.00 0.00 0.00 0.00 0.00
0.00 0.01 0.00 0.00 0.00 0.00 0.00 0.00 0.00 0.00 0.00 0.00 0.00 0.00 0.00 0.00 0.00 0.00 0.00 0.00 0.00 0.00 0.00 0.00 0.00 0.00 0.00 0.00 0.00 0.00 0.00 0.00 0.00 0.00 0.00 0.00 0.00 0.00 0.00 0.00 0.00 0.00 0.00 0.00 0.00
0.00 0.00 0.00 0.00 0.00 0.00 0.00 0.00 0.00 0.00 0.00 0.00 0.00 0.00 0.00 0.00 0.00 0.00 0.00 0.00 0.00 0.00 0.00 0.00 0.00 0.00 0.00 0.00 0.00 0.00 0.00 0.00 0.00 0.00 0.00 0.00 0.00 0.00 0.00 0.00 0.00 0.00 0.00 0.00 0.00
0.00 0.00 0.00 0.00 0.00 0.00 0.00 0.00 0.00 0.00 0.00 0.00 0.00 0.00 0.00 0.00 0.00 0.00 0.00 0.00 0.00 0.00 0.00 0.00 0.00 0.00 0.00 0.00 0.00 0.00 0.00 0.00 0.00 0.00 0.00 0.00 0.00 0.00 0.00 0.00 0.00 0.00 0.00 0.00 0.00
0.00 0.00 0.00 0.00 0.00 0.00 0.00 0.00 0.00 0.00 0.00 0.00 0.00 0.00 0.00 0.00 0.00 0.00 0.00 0.00 0.00 0.00 0.00 0.00 0.00 0.00 0.00 0.00 0.00 0.00 0.00 0.00 0.00 0.00 0.00 0.00 0.00 0.00 0.00 0.00 0.00 0.00 0.00 0.00 0.00
0.00 0.00 0.00 0.00 0.00 0.00 0.00 0.00 0.00 0.00 0.00 0.00 0.00 0.00 0.00 0.00 0.00 0.00 0.00 0.00 0.00 0.00 0.00 0.00 0.00 0.00 0.00 0.00 0.00 0.00 0.00 0.00 0.00 0.00 0.00 0.00 0.00 0.00 0.00 0.00 0.00 0.00 0.00 0.00 0.00
0.00 0.00 0.00 0.00 0.00 0.00 0.00 0.00 0.00 0.00 0.00 0.00 0.00 0.00 0.00 0.00 0.00 0.00 0.00 0.00 0.00 0.00 0.00 0.00 0.00 0.00 0.00 0.00 0.00 0.00 0.00 0.00 0.00 0.00 0.00 0.00 0.00 0.00 0.00 0.00 0.00 0.00 0.00 0.00 0.00
0.00 0.00 0.00 0.00 0.00 0.00 0.00 0.00 0.00 0.00 0.00 0.00 0.00 0.00 0.00 0.00 0.00 0.00 0.00 0.00 0.00 0.00 0.00 0.00 0.00 0.00 0.00 0.00 0.00 0.00 0.00 0.00 0.00 0.00 0.00 0.00 0.00 0.00 0.00 0.00 0.00 0.00 0.00 0.00 0.00
0.00 0.00 0.00 0.00 0.00 0.00 0.00 0.00 0.00 0.00 0.00 0.00 0.00 0.00 0.00 0.00 0.00 0.00 0.00 0.00 0.00 0.00 0.00 0.00 0.00 0.00 0.00 0.00 0.00 0.00 0.00 0.00 0.00 0.00 0.00 0.00 0.00 0.00 0.00 0.00 0.00 0.00 0.00 0.00 0.00
0.00 0.00 0.00 0.00 0.00 0.00 0.00 0.00 0.00 0.00 0.00 0.00 0.00 0.00 0.00 0.00 0.00 0.00 0.00 0.00 0.00 0.00 0.00 0.00 0.00 0.00 0.00 0.00 0.00 0.00 0.00 0.00 0.00 0.00 0.00 0.00 0.00 0.00 0.00 0.00 0.00 0.00 0.00 0.00 0.00
0.00 0.00 0.00 0.00 0.00 0.00 0.00 0.00 0.00 0.00 0.00 0.00 0.00 0.00 0.00 0.00 0.00 0.00 0.00 0.00 0.00 0.00 0.00 0.00 0.00 0.00 0.00 0.00 0.00 0.00 0.00 0.00 0.00 0.00 0.00 0.00 0.00 0.00 0.00 0.00 0.00 0.00 0.00 0.00 0.00
0.00 0.00 0.00 0.00 0.00 0.00 0.00 0.00 0.00 0.00 0.00 0.00 0.00 0.00 0.00 0.00 0.00 0.00 0.00 0.00 0.00 0.00 0.00 0.00 0.00 0.00 0.00 0.00 0.00 0.00 0.00 0.00 0.00 0.00 0.00 0.00 0.00 0.00 0.00 0.00 0.00 0.00 0.00 0.00 0.00
0.00 0.00 0.00 0.00 0.00 0.00 0.00 0.00 0.00 0.00 0.00 0.00 0.00 0.00 0.00 0.00 0.00 0.00 0.00 0.00 0.00 0.00 0.00 0.00 0.00 0.00 0.00 0.00 0.00 0.00 0.00 0.00 0.00 0.00 0.00 0.00 0.00 0.00 0.00 0.00 0.00 0.00 0.00 0.00 0.00
0.00 0.00 0.00 0.00 0.00 0.00 0.00 0.00 0.00 0.00 0.00 0.00 0.00 0.00 0.00 0.00 0.00 0.00 0.00 0.00 0.00 0.00 0.00 0.00 0.00 0.00 0.00 0.00 0.00 0.00 0.00 0.00 0.00 0.00 0.00 0.00 0.00 0.00 0.00 0.00 0.00 0.00 0.00 0.00 0.00
MSLP
1017.45 1017.02 1016.56 1016.06 1015.55 1015.09 1014.64 1014.27 1013.82 1013.28 1012.86 1012.60 1012.36 1011.97 1011.42 1010.74 1009.40 1008.87 1007.26 1006.44 1007.02 1007.77 1007.73 1007.31 1007.02 1006.54 1006.18 1005.56 1005.47 1005.44 1003.39 1002.96 1003.35 1003.18 1003.88 1004.54 1004.92 1005.24 1005.42 1005.97 1006.39 1006.99 1007.05 1008.53 1010.10
1017.60 1017.12 1016.68 1016.15 1015.56 1015.05 1014.55 1014.09 1013.67 1013.22 1012.75 1012.40 1012.16 1011.82 1011.28 1010.76 1008.90 1007.10 1006.63 1006.89 1007.22 1007.54 1006.98 1006.60 1006.04 1005.95 1004.70 1004.65 1004.89 1004.30 1002.99 1003.47 1003.59 1003.35 1003.57 1004.18 1004.43 1004.93 1005.28 1005.83 1006.60 1007.23 1007.87 1009.24 1010.00
1017.64 1017.15 1016.69 1016.19 1015.57 1015.01 1014.49 1013.95 1013.43 1013.07 1012.68 1012.21 1011.93 1011.56 1011.09 1010.52 1008.00 1005.74 1006.68 1007.02 1007.33 1007.29 1006.27 1005.95 1005.75 1005.34 1004.03 1004.12 1003.93 1003.68 1003.07 1003.26 1003.08 1003.23 1003.36 1003.93 1004.26 1004.53 1004.87 1005.32 1006.22 1007.18 1008.08 1009.19 1009.74
1017.55 1017.10 1016.65 1016.07 1015.44 1014.80 1014.20 1013.66 1013.17 1012.82 1012.53 1012.01 1011.70 1011.32 1010.87 1009.57 1006.66 1006.02 1006.65 1007.01 1007.30 1006.51 1006.23 1005.72 1005.21 1004.16 1003.44 1003.12 1003.60 1003.27 1003.29 1003.24 1003.07 1003.20 1003.30 1003.59 1004.06 1004.37 1004.56 1005.01 1005.71 1007.09 1008.03 1008.75 1009.28
1017.46 1016.95 1016.48 1015.89 1015.21 1014.50 1013.84 1013.23 1012.78 1012.44 1012.23 1011.80 1011.52 1011.23 1010.36 1008.05 1005.95 1006.30 1006.93 1007.40 1007.32 1006.45 1005.73 1005.17 1004.60 1003.99 1003.19 1003.15 1003.18 1003.13 1002.82 1003.11 1003.02 1003.10 1003.13 1003.64 1004.00 1004.22 1004.67 1005.39 1005.99 1007.01 1007.97 1008.54 1008.81
1017.41 1016.87 1016.27 1015.54 1014.88 1014.20 1013.56 1012.86 1012.27 1011.90 1011.81 1011.45 1011.29 1011.20 1009.60 1007.04 1006.33 1006.37 1006.55 1007.15 1006.24 1005.95 1005.52 1005.33 1004.55 1004.41 1003.71 1003.00 1002.82 1002.85 1002.84 1002.82 1002.93 1002.87 1003.15 1003.59 1004.05 1004.43 1005.07 1005.36 1006.11 1006.85 1007.60 1008.15 1008.46
1017.39 1016.80 1016.17 1015.34 1014.60 1013.86 1013.23 1012.53 1011.80 1011.30 1011.19 1011.05 1010.97 1010.49 1008.40 1006.28 1006.38 1006.29 1006.41 1006.36 1006.18 1005.81 1005.18 1005.23 1005.15 1004.43 1003.62 1002.55 1002.75 1002.52 1002.44 1002.50 1002.80 1002.93 1003.29 1003.58 1004.09 1004.17 1005.05 1005.58 1006.12 1006.73 1007.32 1007.82 1008.22
1017.24 1016.58 1015.95 1015.18 1014.36 1013.72 1012.96 1012.14 1011.36 1010.75 1010.63 1010.72 1010.74 1009.68 1006.77 1006.63 1006.44 1006.29 1006.23 1006.13 1006.34 1006.05 1005.96 1005.67 1005.32 1004.43 1003.64 1002.86 1002.06 1001.99 1001.86 1001.42 1002.32 1002.87 1003.61 1003.77 1002.96 1004.24 1005.16 1005.49 1005.83 1006.39 1006.98 1007.55 1007.95
1017.16 1016.40 1015.70 1014.89 1014.13 1013.34 1012.70 1011.94 1011.21 1010.72 1010.63 1010.62 1009.98 1008.53 1006.10 1007.20 1006.29 1005.65 1005.74 1005.21 1005.41 1005.74 1005.99 1005.83 1005.07 1003.75 1003.02 1002.05 1001.03 1001.12 1000.85 1001.26 1001.61 1002.69 1002.95 1003.48 1002.99 1003.99 1004.87 1005.13 1005.37 1005.91 1006.58 1007.21 1007.69
1017.05 1016.37 1015.59 1014.73 1013.97 1013.21 1012.33 1011.78 1011.22 1010.91 1010.36 1009.71 1009.05 1008.01 1006.18 1005.28 1005.07 1005.15 1005.28 1005.53 1004.92 1005.03 1005.14 1004.99 1004.11 1003.01 1002.27 1001.55 1000.46 1001.18 1001.13 1001.17 1001.37 1002.03 1002.61 1002.60 1002.81 1003.53 1004.15 1004.42 1004.81 1005.50 1005.94 1006.66 1007.12
1016.86 1016.18 1015.44 1014.63 1013.75 1013.07 1011.90 1010.75 1010.57 1009.65 1008.51 1007.00 1006.45 1005.84 1005.30 1005.11 1005.31 1004.81 1004.87 1004.99 1004.68 1004.30 1003.60 1003.76 1003.06 1001.99 1001.33 1001.47 1001.83 1001.71 1001.35 1000.98 1001.14 1002.03 1002.20 1001.81 1002.10 1002.55 1003.44 1003.88 1004.07 1004.77 1005.33 1005.73 1006.12
1016.66 1016.04 1015.27 1014.44 1013.49 1012.52 1011.86 1009.59 1010.51 1010.57 1008.08 1006.32 1006.09 1005.79 1005.60 1005.57 1004.39 1004.11 1004.50 1004.12 1003.82 1003.17 1003.03 1003.16 1002.15 1001.54 1001.76 1001.99 1001.85 1001.50 1001.02 1000.62 1001.09 1001.98 1001.96 1001.32 1001.31 1001.50 1002.47 1003.07 1003.53 1003.96 1004.48 1004.91 1005.42
1016.51 1015.94 1015.25 1014.21 1013.07 1011.76 1010.85 1010.33 1010.51 1010.26 1008.08 1005.65 1005.35 1004.94 1004.70 1005.20 1003.86 1003.07 1003.86 1003.28 1002.87 1002.63 1002.35 1001.98 1001.11 1001.24 1001.97 1001.62 1001.49 1000.86 1000.66 1001.13 1001.31 1001.31 1001.47 1000.94 999.86 1000.66 1001.40 1002.34 1002.90 1003.32 1003.69 1004.05 1004.54
1016.39 1015.89 1015.28 1014.09 1013.01 1011.73 1010.28 1010.55 1010.37 1010.13 1007.02 1004.92 1004.49 1004.29 1004.62 1004.23 1003.55 1003.09 1003.26 1002.97 1002.65 1002.20 1002.15 1001.75 1001.41 1001.85 1001.63 1001.33 1001.25 1000.54 1001.15 1001.28 1001.15 1000.60 999.90 1000.66 999.44 999.57 1000.46 1001.35 1001.91 1002.31 1002.75 1003.18 1003.59
1016.27 1015.78 1015.26 1015.19 1013.17 1011.02 1010.72 1010.44 1010.16 1009.58 1005.28 1004.33 1003.83 1004.38 1004.04 1003.41 1002.71 1003.03 1003.15 1003.01 1002.12 1002.06 1002.21 1001.24 1001.48 1001.62 1001.36 1000.92 1001.16 1000.90 1001.50 1001.41 1001.06 1000.03 999.76 999.98 999.10 998.67 999.92 1000.08 1000.54 1001.19 1001.55 1002.18 1002.56
1015.91 1015.45 1014.97 1013.62 1012.86 1011.08 1010.86 1010.40 1009.85 1007.53 1004.14 1003.55 1003.45 1003.33 1003.27 1002.90 1002.33 1002.79 1002.98 1003.03 1002.37 1002.06 1002.14 1001.46 1001.90 1001.59 1000.76 1000.53 1001.02 1001.59 1001.41 1000.92 1000.43 999.59 998.71 999.34 999.45 997.81 998.21 998.69 999.05 999.99 1000.59 1001.26 1001.91
1015.23 1014.84 1014.87 1013.28 1010.96 1011.17 1010.59 1009.34 1007.35 1005.18 1004.45 1003.71 1003.11 1002.93 1002.54 1001.96 1001.94 1001.86 1002.10 1002.08 1001.55 1001.60 1000.95 1001.06 1001.05 1001.14 1001.32 1000.48 1001.09 1001.19 1000.39 999.42 998.76 998.13 998.26 999.32 998.89 997.81 997.80 998.12 998.58 999.00 999.85 1000.57 1001.23
1014.62 1014.07 1013.54 1012.42 1011.69 1011.35 1009.93 1007.95 1005.92 1005.26 1004.24 1004.04 1003.37 1002.74 1001.94 1001.69 1001.44 1001.48 1001.28 1001.06 1001.20 1000.89 1000.20 999.92 999.59 1000.02 1000.40 1000.49 1000.00 1000.09 999.75 998.88 998.21 997.97 998.09 999.10 997.89 996.94 997.51 997.91 998.38 998.82 999.32 1000.02 1000.60
1013.92 1012.23 1011.60 1011.19 1011.30 1011.28 1009.06 1006.56 1005.53 1005.55 1005.22 1004.28 1002.98 1002.15 1001.74 1001.69 1001.41 1001.35 1001.01 1000.44 1000.44 1001.08 1000.53 999.75 999.64 999.97 1000.21 999.97 1000.21 999.64 999.83 999.25 998.68 998.21 998.37 997.40 997.35 996.63 997.19 997.48 998.10 998.51 999.00 999.49 999.93
1013.29 1011.22 1010.71 1011.23 1011.12 1010.09 1007.88 1006.89 1006.40 1006.47 1005.88 1004.89 1003.29 1002.85 1001.57 1001.43 1001.30 1000.95 1000.55 1000.46 1000.32 1000.67 1000.81 1000.13 1000.03 999.80 1000.03 1000.42 1000.19 999.69 999.10 998.98 998.71 998.20 997.74 996.96 996.86 996.53 997.01 997.30 997.96 998.23 998.63 999.04 999.60
1012.64 1010.03 1010.56 1010.72 1010.61 1008.60 1006.77 1006.97 1006.98 1006.49 1006.43 1005.43 1004.34 1003.46 1002.68 1001.94 1001.38 1000.56 1000.49 1000.95 1000.97 1000.98 1001.08 1000.68 1000.26 999.67 1000.03 999.51 998.62 999.58 999.07 998.89 998.31 997.91 997.53 997.00 996.14 996.91 997.45 998.10 998.16 998.11 998.51 998.76 999.49
1011.77 1009.17 1010.22 1010.07 1008.55 1008.09 1007.10 1007.70 1008.29 1006.63 1006.41 1005.87 1005.37 1004.43 1003.53 1002.90 1001.77 1001.02 1000.45 1000.31 1001.36 1001.20 1000.99 1000.81 999.91 999.16 998.73 998.83 999.23 998.39 998.03 997.94 997.82 997.67 997.72 997.52 996.91 997.51 998.34 998.65 998.89 999.02 998.89 999.08 999.39
1011.49 1010.14 1009.83 1009.45 1007.52 1007.45 1007.93 1007.55 1007.59 1006.74 1006.32 1005.89 1005.30 1005.04 1004.41 1003.52 1002.59 1001.84 1001.35 1001.54 1001.64 1001.32 1000.98 1001.06 1000.34 998.90 998.47 998.69 999.39 998.76 998.43 998.25 997.64 997.21 996.87 996.91 996.58 997.98 998.84 999.34 999.74 999.68 999.52 999.60 999.78
1011.92 1009.68 1009.39 1009.02 1009.05 1008.17 1007.94 1007.66 1007.21 1007.16 1006.84 1006.62 1006.02 1005.27 1004.74 1003.70 1003.09 1002.40 1001.71 1001.66 1001.98 1001.80 1002.10 1001.56 999.58 998.81 997.68 997.55 997.52 997.87 998.05 998.06 997.70 996.90 996.63 996.80 996.48 997.14 998.97 999.80 1000.02 1000.04 1000.03 999.89 999.59
1012.40 1011.44 1011.39 1009.26 1009.11 1008.95 1008.82 1008.55 1007.73 1007.16 1007.24 1006.90 1006.28 1005.84 1005.25 1004.25 1003.32 1002.93 1002.43 1001.92 1001.90 1002.41 1001.94 1001.08 999.59 999.56 998.98 998.91 998.42 997.82 997.43 997.67 997.54 996.93 996.69 997.14 997.31 997.65 999.54 1000.10 1000.39 1000.40 1000.03 999.73 999.31
1013.09 1012.55 1011.92 1010.96 1010.60 1009.89 1009.70 1008.92 1008.49 1008.11 1007.88 1006.94 1006.83 1006.49 1005.81 1004.95 1005.10 1004.17 1003.76 1002.70 1002.00 1002.07 1001.45 1000.74 1000.07 1000.02 999.31 999.34 998.81 998.22 997.78 997.77 997.82 997.96 997.82 997.92 997.97 998.88 999.85 1000.16 1000.46 1000.55 1000.47 1000.06 999.64
1014.81 1014.24 1013.23 1011.72 1010.67 1010.34 1009.73 1009.81 1009.42 1009.44 1008.50 1008.30 1008.01 1007.21 1006.02 1006.22 1006.23 1005.61 1004.86 1004.03 1003.31 1003.08 1001.80 1001.16 1000.12 1000.01 999.02 999.53 999.21 998.49 998.08 998.00 998.07 998.23 998.01 997.89 998.24 999.42 999.84 1000.27 1000.80 1000.86 1000.74 1000.62 1000.30
Thickness
5774 5779 5784 5789 5793 5798 5802 5806 5810 5815 5819 5821 5822 5824 5828 5832 5842 5846 5845 5858 5854 5846 5845 5844 5840 5838 5841 5835 5838 5833 5819 5804 5803 5805 5803 5818 5806 5821 5826 5810 5812 5811 5810 5804 5797
5770 5776 5781 5786 5791 5796 5801 5805 5809 5813 5818 5821 5823 5824 5827 5831 5845 5849 5861 5858 5853 5848 5846 5838 5832 5834 5836 5836 5834 5828 5820 5806 5823 5825 5815 5819 5818 5817 5813 5807 5802 5803 5809 5803 5798
5768 5773 5778 5783 5789 5794 5799 5804 5809 5812 5816 5821 5823 5825 5828 5832 5842 5855 5861 5856 5852 5851 5855 5852 5844 5837 5834 5840 5837 5834 5818 5829 5833 5835 5835 5821 5820 5828 5816 5803 5807 5798 5799 5799 5797
5766 5771 5775 5781 5787 5793 5798 5804 5809 5812 5815 5820 5823 5826 5829 5838 5827 5860 5861 5856 5852 5857 5852 5845 5840 5835 5833 5831 5840 5825 5834 5834 5837 5840 5834 5824 5830 5820 5824 5820 5827 5815 5810 5803 5798
5763 5769 5774 5780 5787 5793 5799 5804 5809 5813 5816 5820 5822 5824 5833 5837 5845 5862 5858 5852 5851 5854 5846 5841 5835 5838 5830 5838 5839 5829 5837 5839 5843 5842 5840 5837 5824 5824 5822 5828 5830 5820 5811 5804 5803
5760 5766 5773 5780 5787 5793 5799 5805 5811 5814 5817 5820 5822 5823 5833 5826 5860 5860 5859 5853 5855 5851 5847 5845 5841 5845 5838 5840 5837 5844 5840 5839 5842 5842 5841 5828 5824 5827 5823 5832 5822 5818 5811 5810 5808
5757 5763 5769 5778 5786 5793 5799 5806 5812 5817 5819 5821 5822 5827 5832 5841 5859 5859 5858 5854 5857 5853 5845 5852 5850 5842 5847 5842 5855 5849 5831 5838 5837 5838 5830 5836 5812 5816 5826 5826 5817 5814 5813 5812 5812
5754 5761 5767 5775 5784 5790 5798 5806 5813 5818 5820 5820 5821 5829 5832 5855 5856 5855 5858 5853 5856 5857 5850 5853 5853 5847 5844 5858 5854 5838 5839 5820 5836 5836 5830 5827 5808 5821 5827 5821 5815 5815 5814 5812 5813
5750 5758 5765 5773 5782 5790 5797 5804 5810 5815 5817 5818 5824 5827 5832 5849 5844 5858 5859 5850 5853 5853 5850 5851 5849 5843 5849 5839 5840 5842 5820 5822 5829 5840 5833 5822 5812 5824 5828 5823 5818 5818 5816 5813 5813
5745 5753 5762 5770 5779 5787 5796 5802 5806 5810 5816 5821 5823 5816 5836 5837 5851 5855 5861 5853 5847 5844 5837 5836 5837 5832 5840 5835 5816 5814 5818 5828 5824 5837 5833 5825 5819 5826 5828 5826 5822 5819 5820 5816 5815
5741 5749 5758 5766 5776 5783 5796 5807 5809 5811 5819 5824 5828 5827 5835 5847 5853 5848 5856 5847 5847 5839 5823 5834 5820 5816 5836 5842 5835 5831 5827 5827 5839 5841 5830 5831 5828 5829 5829 5827 5826 5823 5822 5822 5822
5736 5744 5753 5762 5772 5782 5790 5803 5795 5795 5799 5828 5827 5828 5836 5839 5830 5843 5855 5834 5832 5821 5835 5822 5813 5840 5845 5839 5832 5831 5828 5832 5841 5839 5834 5838 5832 5841 5836 5832 5832 5830 5828 5829 5829
5732 5739 5747 5758 5770 5783 5789 5791 5795 5797 5794 5818 5825 5825 5832 5832 5829 5839 5846 5843 5832 5824 5828 5819 5837 5849 5832 5832 5825 5835 5830 5824 5822 5838 5841 5839 5842 5838 5844 5841 5840 5840 5841 5840 5835
5727 5733 5741 5754 5766 5775 5783 5787 5790 5792 5791 5806 5814 5823 5828 5833 5820 5851 5853 5842 5832 5822 5828 5827 5846 5830 5828 5825 5833 5821 5839 5833 5827 5830 5820 5842 5813 5842 5842 5833 5837 5841 5843 5844 5844
5723 5728 5735 5739 5757 5770 5775 5781 5786 5784 5772 5805 5811 5833 5828 5821 5832 5829 5852 5837 5823 5823 5826 5823 5825 5822 5819 5830 5838 5825 5836 5829 5829 5833 5834 5827 5828 5846 5842 5832 5837 5843 5848 5851 5854
5721 5726 5733 5744 5751 5766 5770 5775 5776 5767 5762 5792 5808 5807 5807 5817 5824 5828 5827 5839 5841 5824 5824 5827 5839 5835 5837 5847 5842 5838 5828 5831 5835 5837 5819 5824 5820 5840 5845 5847 5851 5853 5855 5858 5857
5724 5728 5730 5740 5760 5760 5766 5770 5760 5759 5789 5779 5788 5801 5802 5806 5811 5818 5811 5809 5808 5792 5802 5819 5822 5837 5839 5829 5837 5831 5825 5806 5810 5822 5810 5830 5820 5838 5860 5863 5860 5858 5859 5862 5863
5726 5732 5738 5744 5750 5754 5763 5760 5741 5760 5769 5786 5787 5793 5791 5803 5806 5809 5808 5803 5820 5819 5812 5803 5802 5828 5841 5829 5827 5825 5829 5814 5786 5804 5817 5825 5814 5845 5869 5872 5870 5870 5869 5866 5864
5731 5744 5747 5751 5749 5750 5756 5746 5751 5754 5765 5769 5786 5781 5785 5795 5799 5799 5802 5807 5817 5815 5796 5801 5801 5831 5834 5842 5835 5825 5808 5845 5821 5837 5812 5838 5845 5872 5872 5867 5867 5866 5866 5863 5866
5735 5747 5748 5747 5748 5752 5752 5732 5748 5755 5760 5768 5764 5776 5776 5784 5786 5793 5796 5811 5809 5819 5824 5813 5787 5821 5825 5831 5833 5828 5848 5812 5823 5786 5786 5828 5830 5835 5852 5858 5861 5863 5863 5866 5868
5738 5749 5747 5749 5749 5752 5744 5740 5745 5759 5756 5754 5758 5762 5771 5774 5784 5791 5792 5801 5809 5808 5815 5814 5805 5804 5815 5813 5821 5814 5815 5823 5832 5829 5803 5805 5834 5864 5858 5857 5858 5867 5870 5871 5867
5742 5745 5749 5752 5744 5744 5742 5738 5728 5751 5756 5754 5757 5759 5761 5768 5775 5781 5786 5801 5809 5809 5793 5810 5809 5794 5809 5828 5833 5834 5829 5834 5809 5806 5822 5819 5830 5867 5860 5862 5861 5861 5868 5872 5872
5738 5740 5751 5749 5738 5737 5738 5739 5740 5745 5748 5749 5749 5756 5764 5760 5758 5775 5783 5798 5803 5802 5797 5802 5792 5785 5795 5812 5816 5811 5824 5830 5837 5842 5821 5813 5835 5861 5856 5854 5856 5856 5863 5867 5867
5733 5735 5739 5743 5738 5735 5729 5729 5730 5744 5742 5743 5743 5755 5751 5756 5769 5763 5774 5789 5796 5798 5782 5797 5806 5798 5796 5809 5825 5806 5813 5822 5826 5819 5824 5826 5844 5855 5843 5840 5848 5853 5859 5864 5869
5726 5719 5717 5727 5727 5727 5727 5723 5723 5726 5737 5740 5736 5739 5739 5739 5753 5755 5771 5780 5790 5774 5790 5797 5789 5793 5803 5804 5810 5814 5819 5817 5814 5834 5820 5826 5827 5843 5835 5837 5841 5849 5857 5861 5867
5716 5713 5717 5716 5715 5716 5706 5717 5715 5720 5722 5726 5724 5731 5737 5734 5733 5736 5750 5765 5768 5782 5786 5800 5781 5786 5785 5796 5803 5799 5815 5816 5817 5816 5820 5822 5822 5841 5841 5845 5841 5843 5846 5850 5858
5701 5703 5703 5696 5713 5709 5713 5709 5709 5708 5720 5719 5715 5720 5729 5726 5730 5738 5749 5757 5763 5756 5771 5777 5785 5777 5777 5787 5790 5781 5802 5810 5814 5821 5823 5810 5826 5831 5829 5830 5831 5836 5841 5842 5847